Apalachicola, FL

5:45 AM EDT on September 26, 2017 (GMT -0400)
Apalachicola Municipal

Weather History for KAAF - October, 2012

Change the Weather History Date:

Saturday, October 13, 2012

  Actual Average Record
Temperature  
Mean Temperature 74 °F 72 °F  
Max Temperature 82 °F 82 °F 90 °F (2002)
Min Temperature 66 °F 62 °F 44 °F (1977)
Degree Days  
Heating Degree Days 0    
Month to date heating degree days 0  
Since 1 July heating degree days 0  
Cooling Degree Days 9    
Month to date cooling degree days 140  
Year to date cooling degree days 2654  
Growing Degree Days 24 (Base 50)    
Moisture  
Dew Point 64 °F    
Average Humidity 71    
Maximum Humidity 87    
Minimum Humidity 54    
Precipitation  
Precipitation 0.00 in 0.14 in 2.45 in (2001)
Month to date precipitation 0.61 2.10  
Year to date precipitation 55.32 48.77  
Sea Level Pressure  
Sea Level Pressure 30.19 in    
Wind  
Wind Speed 7 mph (ENE)    
Max Wind Speed 16 mph    
Max Gust Speed 23 mph    
Visibility 10 miles    
Events      
T = Trace of Precipitation, MM = Missing Value Source: NWS Daily Summary

Daily Weather History Graph

Daily Weather History Graph

Search for Another Location

Airport or City:

Trip Planner

Search our weather history database for the weather conditions in past years. The results will help you decide how hot, cold, wet, or windy it might be!

Date:

Astronomy

Oct. 13, 2012 Rise Set
Actual Time 7:40 AM EDT 7:11 PM EDT
Civil Twilight 7:16 AM EDT 7:35 PM EDT
Nautical Twilight 6:49 AM EDT 8:02 PM EDT
Astronomical Twilight 6:21 AM EDT 8:30 PM EDT
Moon 5:36 AM EDT (10/13) 5:50 PM EDT (10/13)
Length of Visible Light 12h 18m
Length of Day
11h 30m
Waning Crescent, 5% of the Moon is Illuminated
Oct 13
Waning Crescent
Oct 15
New
Oct 21
First Quarter
Oct 29
Full
Nov 6
Last Quarter

Hourly Weather History & Observations

Time (EDT) Temp. Heat Index Dew Point Humidity Pressure Visibility Wind Dir Wind Speed Gust Speed Precip Events Conditions
12:53 AM 69.1 °F - 64.0 °F 84% 30.19 in 10.0 mi Calm Calm - N/A   Clear
1:53 AM 69.1 °F - 64.0 °F 84% 30.19 in 10.0 mi Calm Calm - N/A   Clear
2:53 AM 69.1 °F - 64.0 °F 84% 30.17 in 10.0 mi Calm Calm - N/A   Clear
3:53 AM 66.9 °F - 63.0 °F 87% 30.16 in 10.0 mi NNE 4.6 mph - N/A   Clear
4:53 AM 68.0 °F - 64.0 °F 87% 30.16 in 10.0 mi NE 5.8 mph - N/A   Clear
5:53 AM 68.0 °F - 62.1 °F 81% 30.17 in 10.0 mi ENE 6.9 mph - N/A   Clear
6:53 AM 66.9 °F - 62.1 °F 84% 30.19 in 10.0 mi NE 6.9 mph - N/A   Clear
7:53 AM 66.0 °F - 61.0 °F 84% 30.20 in 10.0 mi NE 6.9 mph - N/A   Clear
8:53 AM 69.1 °F - 62.1 °F 78% 30.22 in 10.0 mi NE 8.1 mph - N/A   Clear
9:53 AM 73.9 °F - 64.9 °F 73% 30.23 in 10.0 mi ENE 11.5 mph - N/A   Clear
10:53 AM 80.1 °F 82.7 °F 68.0 °F 67% 30.24 in 10.0 mi ESE 10.4 mph 18.4 mph N/A   Clear
11:53 AM 82.0 °F 84.5 °F 66.9 °F 60% 30.25 in 10.0 mi East 9.2 mph 21.9 mph N/A   Partly Cloudy
12:23 PM 80.6 °F 82.7 °F 66.2 °F 61% 30.24 in 10.0 mi ESE 12.7 mph 18.4 mph N/A   Mostly Cloudy
12:48 PM 80.6 °F 82.7 °F 66.2 °F 61% 30.24 in 10.0 mi East 9.2 mph 19.6 mph N/A   Scattered Clouds
12:53 PM 81.0 °F 83.0 °F 66.0 °F 60% 30.24 in 10.0 mi ESE 13.8 mph 19.6 mph N/A   Scattered Clouds
1:53 PM 81.0 °F 82.7 °F 64.9 °F 58% 30.21 in 10.0 mi East 12.7 mph 18.4 mph N/A   Clear
2:53 PM 82.0 °F 83.4 °F 64.0 °F 54% 30.18 in 10.0 mi ESE 8.1 mph - N/A   Clear
3:53 PM 81.0 °F 82.2 °F 63.0 °F 54% 30.16 in 10.0 mi ESE 11.5 mph - N/A   Clear
4:53 PM 81.0 °F 82.2 °F 63.0 °F 54% 30.15 in 10.0 mi ESE 10.4 mph - N/A   Clear
5:53 PM 81.0 °F 82.5 °F 64.0 °F 56% 30.15 in 10.0 mi ESE 6.9 mph - N/A   Clear
6:53 PM 79.0 °F - 64.0 °F 60% 30.15 in 10.0 mi East 4.6 mph - N/A   Clear
8:53 PM 71.1 °F - 64.0 °F 78% 30.17 in 10.0 mi Calm Calm - N/A   Clear
9:53 PM 71.1 °F - 64.0 °F 78% 30.17 in 10.0 mi NE 4.6 mph - N/A   Clear
10:53 PM 70.0 °F - 63.0 °F 78% 30.16 in 10.0 mi ENE 5.8 mph - N/A   Clear
11:53 PM 69.8 °F - 62.6 °F 78% 30.17 in 10.0 mi NE 6.9 mph - N/A   Clear